Вернуться в каталог

NAHUEL I1

ANIK C1

АктивенСвязьGEO
NORAD 15642·PAYLOAD·🇦🇷 Argentina

Запущен Apr 12, 1985 с Cape Canaveral Space Force Station

Loading…

TLE

СвежийSource: Space-Track

Эпоха: Sep 13, 2026, 20:02 UTC

1 15642U 85028B   26256.83517153 -.00000298  00000-0  00000-0 0  9995
2 15642  14.7452 351.4424 0014119 158.7217  97.0263  0.99666114 47272

Отслеживайте NAHUEL I1 в реальном времени с AllMySat

Download on the App Store